Find Starlink 31034

NORAD ID: 58785 Int'l Des: 2024-011 Owner: SPXS Country: US Constellation: starlink operational
LEOCIRCULAR

当前视图

正在加载3D地球...

About Starlink 31034

Starlink 31034 (NORAD 58785) is a starlink constellation satellite (v2 mini) launched Jan 14, 2024 by SPXS of US. It operates in LEO, CIRCULAR orbit with a mass of 730.00 kg.

关于 Starlink 31034

正在加载描述...

即将过境

Passes for default location (London). Set your location on the main map for personalized predictions.

高度历史

Loading altitude history...

两行轨道根数

1 58785U 24011W 26167.71586862 .00000422 00000-0 23641-4 0 9994
2 58785 53.1600 169.8227 0001637 88.7465 271.3725 15.34381316136912
Epoch: Jun 16, 2026 • Age: 35 hours

当前状态

高度 464.2 km
速度 7.64 km/s
星下点 32.98°N, 130.77°W
发射日期 Jan 14, 2024
运行时间 2.4 years
类型 internet

技术详情

分类 Payload
质量 730.00 kg
干质量 700.00 kg
总质量 730.00 kg
长度 0.30 m
直径 4.10 m
跨度 29.00 m
形状 Box + pan
制造商 SPXS
平台类型 Starlink V2M
阶段状态 In Orbit
所有者/国家 SPXS/US

Most Searched